Location: STAR School
(35.3054°N, 111.2976°W)
Time: 19:03:51
(UTC-07:00)

Courier 1B - Visible Passes

Search period start: 22 October 2019 00:00
Search period end: 01 November 2019 00:00
Orbit: 962 x 1209 km, 28.3° (Epoch: 22 October)

Date Brightness Start Highest point End Pass type
(mag) Time Alt. Az. Time Alt. Az. Time Alt. Az.
22 Oct 8.6 18:03:46 10° WSW 18:11:12 48° S 18:18:38 10° E visible
22 Oct 8.3 19:57:42 10° WSW 20:05:13 49° S 20:06:03 48° SSE visible
22 Oct 10.3 21:52:22 10° W 21:52:56 12° WSW 21:52:56 12° WSW visible
23 Oct 8.4 19:03:46 10° WSW 19:11:19 52° S 19:15:36 26° ESE visible
23 Oct 9.3 20:58:10 10° W 21:02:30 29° SW 21:02:30 29° SW visible
24 Oct 8.5 18:09:55 10° WSW 18:17:25 52° S 18:24:57 10° ESE visible
24 Oct 8.5 20:04:05 10° W 20:11:24 42° SSW 20:12:05 42° S visible
25 Oct 8.5 19:10:06 10° W 19:17:32 47° S 19:21:43 25° SE visible
25 Oct 9.6 21:04:54 10° WSW 21:08:36 23° SW 21:08:36 23° SW visible
26 Oct 8.6 18:16:12 10° WSW 18:23:38 50° S 18:31:09 10° ESE visible
26 Oct 8.9 20:10:40 10° W 20:17:30 33° SSW 20:18:17 32° S visible
27 Oct 8.9 19:16:35 10° W 19:23:40 39° SSW 19:28:01 22° SE visible
27 Oct 10.0 21:12:15 10° WSW 21:14:55 16° SW 21:14:55 16° SW visible
28 Oct 8.8 18:22:36 10° W 18:29:49 44° SSW 18:37:09 10° ESE visible
28 Oct 9.4 20:17:36 10° WSW 20:23:30 23° SSW 20:24:44 23° SSW visible
29 Oct 9.3 19:23:17 10° WSW 19:29:45 29° SSW 19:34:37 16° SSE visible
30 Oct 9.2 18:29:11 10° W 18:35:57 34° SSW 18:42:51 10° SE visible
30 Oct 9.9 20:25:30 10° WSW 20:29:28 15° SSW 20:31:32 13° SSW visible
31 Oct 9.9 19:30:34 10° WSW 19:35:45 19° SSW 19:40:59 10° SSE visible
